Weather History for Houston Intercontinental, TX

Change the Weather History Date:

Saturday, August 27, 2011

  Actual Average Record
Temperature  
Mean Temperature 94 °F -  
Max Temperature 109 °F 90 °F 109 °F (2011)
Min Temperature 81 °F 71 °F 69 °F (1997)
Cooling Degree Days 30    
Growing Degree Days 44 (Base 50)    
Moisture  
Dew Point 69 °F    
Average Humidity 50    
Maximum Humidity 85    
Minimum Humidity 20    
Precipitation  
Precipitation 0.00 in - - ()
Sea Level Pressure  
Sea Level Pressure 29.85 in    
Wind  
Wind Speed 6 mph (WSW)    
Max Wind Speed 12 mph    
Max Gust Speed 16 mph    
Visibility 10 miles    
Events      
Averages and records for this station are not official NWS values.
T = Trace of Precipitation, MM = Missing Value Source: NWS Daily Summary

Daily Weather History Graph

Daily Weather History Graph

Search for Another Location

Airport:

Trip Planner

Search our weather history database for the weather conditions in past years. The results will help you decide how hot, cold, wet, or windy it might be!

Date:

Astronomy

Aug. 27, 2011 Rise Set
Actual Time 6:55 AM CDT 7:49 PM CDT
Civil Twilight 6:30 AM CDT 8:14 PM CDT
Nautical Twilight 6:01 AM CDT 8:43 PM CDT
Astronomical Twilight 5:32 AM CDT 9:13 PM CDT
Moon 5:15 AM CDT (8/27) 6:42 PM CDT (8/27)
Length of Visible Light 13h 43m
Length of Day
12h 54m
Waning Crescent, 3% of the Moon is Illuminated
Aug 27
Waning Crescent
Aug 28
New
Sep 4
First Quarter
Sep 12
Full
Sep 20
Last Quarter

Hourly Weather History & Observations

Time (CDT) Temp. Heat Index Dew Point Humidity Pressure Visibility Wind Dir Wind Speed Gust Speed Precip Events Conditions
12:53 AM 84.9 °F 91.4 °F 73.0 °F 67% 29.90 in 10.0 mi WSW 5.8 mph - N/A   Clear
1:53 AM 84.0 °F 91.2 °F 73.9 °F 72% 29.89 in 10.0 mi WSW 4.6 mph - N/A   Clear
2:53 AM 82.9 °F 90.2 °F 75.0 °F 77% 29.89 in 10.0 mi WSW 4.6 mph - N/A   Clear
3:53 AM 82.0 °F 89.4 °F 75.9 °F 82% 29.88 in 10.0 mi WSW 3.5 mph - N/A   Clear
4:53 AM 82.0 °F 89.4 °F 75.9 °F 82% 29.89 in 9.0 mi WSW 4.6 mph - N/A   Clear
5:53 AM 81.0 °F 87.3 °F 75.9 °F 85% 29.89 in 10.0 mi WSW 4.6 mph - N/A   Partly Cloudy
6:53 AM 81.0 °F 86.7 °F 75.0 °F 82% 29.91 in 10.0 mi West 3.5 mph - N/A   Clear
7:53 AM 82.0 °F 87.9 °F 73.9 °F 76% 29.92 in 10.0 mi WSW 3.5 mph - N/A   Partly Cloudy
8:53 AM 86.0 °F 93.0 °F 73.0 °F 65% 29.93 in 10.0 mi West 5.8 mph - N/A   Partly Cloudy
9:53 AM 91.0 °F 95.6 °F 69.1 °F 48% 29.93 in 10.0 mi West 8.1 mph - N/A   Scattered Clouds
10:53 AM 95.0 °F 101.3 °F 70.0 °F 44% 29.93 in 10.0 mi Variable 4.6 mph - N/A   Partly Cloudy
11:53 AM 98.1 °F 104.4 °F 69.1 °F 39% 29.91 in 10.0 mi Variable 5.8 mph - N/A   Partly Cloudy
12:53 PM 102.0 °F 107.3 °F 66.9 °F 32% 29.88 in 10.0 mi WNW 11.5 mph - N/A   Partly Cloudy
1:53 PM 105.1 °F 109.3 °F 64.9 °F 27% 29.85 in 10.0 mi Variable 3.5 mph - N/A   Scattered Clouds
2:53 PM 107.1 °F 111.3 °F 64.0 °F 25% 29.82 in 10.0 mi North 11.5 mph - N/A   Scattered Clouds
3:53 PM 107.6 °F 110.6 °F 62.6 °F 23% 29.79 in 10.0 mi NNW 6.9 mph - N/A   Scattered Clouds
4:53 PM 108.0 °F 108.8 °F 59.0 °F 20% 29.77 in 10.0 mi ENE 9.2 mph - N/A   Scattered Clouds
5:53 PM 107.1 °F 108.1 °F 59.0 °F 21% 29.75 in 10.0 mi NE 5.8 mph 16.1 mph N/A   Scattered Clouds
6:53 PM 104.0 °F 104.6 °F 59.0 °F 23% 29.75 in 10.0 mi NE 8.1 mph - N/A   Partly Cloudy
7:53 PM 99.0 °F 100.5 °F 63.0 °F 30% 29.76 in 10.0 mi ESE 10.4 mph - N/A   Partly Cloudy
8:53 PM 96.1 °F 101.0 °F 68.0 °F 40% 29.79 in 10.0 mi South 8.1 mph - N/A   Partly Cloudy
9:53 PM 93.9 °F 100.8 °F 71.1 °F 47% 29.80 in 10.0 mi South 4.6 mph - N/A   Partly Cloudy
10:53 PM 91.9 °F 98.4 °F 71.1 °F 50% 29.80 in 10.0 mi South 3.5 mph - N/A   Clear
11:53 PM 89.1 °F 94.1 °F 70.0 °F 53% 29.81 in 10.0 mi WSW 3.5 mph - N/A   Clear